Date String (YYYY-MM-DD hh:mm:ss) UTC,Instrument flags,Ambient pressure (hPa),Sample flow (lpm),Bypass flow (lpm),Sample temperature (°C),Ambient temperature (°C),ASC tube jacket temperature (°C),LED temperature (°C),Box temperature (°C),Sample RH (%),Span deviation,Mass concentration (μg/m³),Mass concentration (μg/m³),Mass concentration (μg/m³)
DateTimeUTC,F1_M11,P_M11,Q1_M11,Q2_M11,T1_M11,T2_M11,T3_M11,T4_M11,T5_M11,U1_M11,ZSPAN_M11,X0_M11,X2_M11,X1_M11
2021-10-20 04:00:00,,0827.4,5.00,0.00,27.2,26.3,00.0,36.3,28.9,16.5,0000.0,0011.77,0003.31,0002.44
2021-10-20 04:01:00,,0827.4,4.99,0.00,27.2,26.3,00.0,36.3,29.0,16.5,0000.0,0012.43,0003.33,0002.41
2021-10-20 04:02:00,,0827.4,5.00,0.00,27.2,26.3,00.0,36.3,29.0,16.4,0000.0,0012.77,0003.34,0002.41
2021-10-20 04:03:00,,0827.5,5.01,0.00,27.2,26.3,00.0,36.3,29.0,16.4,0000.0,0012.65,0003.35,0002.39
2021-10-20 04:04:00,,0827.5,5.00,0.00,27.2,26.3,00.0,36.3,29.0,16.4,0000.0,0012.47,0003.32,0002.37
2021-10-20 04:05:00,,0827.5,5.01,0.00,27.2,26.3,00.0,36.3,29.0,16.5,0000.0,0011.94,0003.31,0002.35
2021-10-20 04:06:00,,0827.5,5.00,0.00,27.2,26.3,00.0,36.3,29.0,16.5,0000.0,0011.43,0003.29,0002.30
2021-10-20 04:07:00,,0827.6,5.00,0.00,27.2,26.3,00.0,36.3,29.0,16.4,0000.0,0011.77,0003.29,0002.26
2021-10-20 04:08:00,,0827.7,5.00,0.00,27.2,26.3,00.0,36.3,29.0,16.4,0000.0,0011.23,0003.29,0002.23
2021-10-20 04:09:00,,0827.7,5.00,0.00,27.2,26.3,00.0,36.3,29.0,16.4,0000.0,0010.17,0003.28,0002.20
2021-10-20 04:10:00,,0827.7,5.00,0.00,27.2,26.3,00.0,36.3,29.0,16.4,0000.0,0010.21,0003.29,0002.18
2021-10-20 04:11:00,,0827.7,5.00,0.00,27.2,26.3,00.0,36.3,29.0,16.3,0000.0,0010.86,0003.28,0002.15
2021-10-20 04:12:00,,0827.8,4.99,0.00,27.2,26.3,00.0,36.3,29.0,16.3,0000.0,0010.61,0003.29,0002.14
2021-10-20 04:13:00,,0827.7,5.01,0.00,27.2,26.3,00.0,36.3,29.0,16.3,0000.0,0010.15,0003.29,0002.13
2021-10-20 04:14:00,,0827.7,5.00,0.00,27.2,26.3,00.0,36.3,29.0,16.3,0000.0,0010.42,0003.26,0002.11
2021-10-20 04:15:00,,0827.7,4.99,0.00,27.2,26.3,00.0,36.3,29.0,16.3,0000.0,0010.32,0003.23,0002.09
2021-10-20 04:16:00,,0827.7,5.01,0.00,27.3,26.3,00.0,36.3,29.1,16.3,0000.0,0010.40,0003.23,0002.08
2021-10-20 04:17:00,,0827.8,5.00,0.00,27.3,26.3,00.0,36.3,29.1,16.3,0000.0,0010.28,0003.18,0002.06
2021-10-20 04:18:00,,0827.8,5.00,0.00,27.3,26.3,00.0,36.3,29.0,16.2,0000.0,0009.63,0003.16,0002.06
2021-10-20 04:19:00,,0827.7,4.99,0.00,27.3,26.3,00.0,36.3,29.0,16.3,0000.0,0009.46,0003.13,0002.07
2021-10-20 04:20:00,,0827.7,4.99,0.00,27.3,26.3,00.0,36.3,29.0,16.3,0000.0,0009.74,0003.13,0002.05
2021-10-20 04:21:00,,0827.7,5.00,0.00,27.3,26.3,00.0,36.3,29.0,16.3,0000.0,0009.47,0003.10,0002.04
2021-10-20 04:22:00,,0827.8,5.02,0.00,27.3,26.3,00.0,36.3,29.0,16.3,0000.0,0008.94,0003.04,0002.03
2021-10-20 04:23:00,,0827.7,4.99,0.00,27.3,26.3,00.0,36.3,29.0,16.3,0000.0,0008.87,0002.93,0002.02
2021-10-20 04:24:00,,0827.8,5.01,0.00,27.3,26.3,00.0,36.3,29.0,16.3,0000.0,0007.98,0002.85,0001.99
2021-10-20 04:25:00,,0827.8,5.00,0.00,27.3,26.3,00.0,36.3,29.1,16.4,0000.0,0007.14,0002.74,0001.96
2021-10-20 04:26:00,,0827.8,5.00,0.00,27.3,26.3,00.0,36.3,29.1,16.4,0000.0,0007.14,0002.71,0001.93
2021-10-20 04:27:00,,0827.8,4.99,0.00,27.3,26.3,00.0,36.3,29.1,16.4,0000.0,0007.13,0002.66,0001.91
2021-10-20 04:28:00,,0827.7,5.00,0.00,27.3,26.3,00.0,36.3,29.0,16.4,0000.0,0007.64,0002.71,0001.91
2021-10-20 04:29:00,,0827.8,4.99,0.00,27.3,26.3,00.0,36.3,29.0,16.4,0000.0,0007.56,0002.63,0001.89
2021-10-20 04:30:00,,0827.9,5.02,0.00,27.3,26.3,00.0,36.3,29.0,16.4,0000.0,0007.30,0002.58,0001.86
2021-10-20 04:31:00,,0827.9,5.01,0.00,27.3,26.3,00.0,36.3,29.0,16.4,0000.0,0007.67,0002.53,0001.85
2021-10-20 04:32:00,,0827.9,5.00,0.00,27.3,26.3,00.0,36.3,29.0,16.4,0000.0,0007.37,0002.51,0001.81
2021-10-20 04:33:00,,0827.9,4.99,0.00,27.3,26.3,00.0,36.3,29.0,16.4,0000.0,0007.48,0002.55,0001.80
2021-10-20 04:34:00,,0827.9,4.99,0.00,27.3,26.3,00.0,36.3,29.0,16.4,0000.0,0007.26,0002.49,0001.76
2021-10-20 04:35:00,,0827.9,5.00,0.00,27.2,26.3,00.0,36.3,29.0,16.5,0000.0,0007.09,0002.45,0001.75
2021-10-20 04:36:00,,0828.0,5.00,0.00,27.2,26.3,00.0,36.3,29.0,16.5,0000.0,0007.71,0002.47,0001.73
2021-10-20 04:37:00,,0827.9,5.01,0.00,27.2,26.3,00.0,36.3,29.0,16.5,0000.0,0007.79,0002.48,0001.72
2021-10-20 04:38:00,,0827.9,5.01,0.00,27.3,26.3,00.0,36.3,29.0,16.5,0000.0,0007.96,0002.48,0001.71
2021-10-20 04:39:00,,0827.9,4.99,0.00,27.2,26.3,00.0,36.3,29.0,16.5,0000.0,0007.46,0002.39,0001.68
2021-10-20 04:40:00,,0828.0,4.99,0.00,27.2,26.3,00.0,36.3,29.0,16.6,0000.0,0007.44,0002.38,0001.65
2021-10-20 04:41:00,,0827.9,5.00,0.00,27.2,26.3,00.0,36.3,29.0,16.6,0000.0,0007.73,0002.47,0001.64
2021-10-20 04:42:00,,0827.9,5.00,0.00,27.2,26.3,00.0,36.3,29.0,16.6,0000.0,0007.30,0002.47,0001.62
2021-10-20 04:43:00,,0828.0,5.00,0.00,27.2,26.3,00.0,36.3,29.0,16.5,0000.0,0007.39,0002.43,0001.62
2021-10-20 04:44:00,,0828.1,5.00,0.00,27.2,26.3,00.0,36.3,29.0,16.5,0000.0,0007.87,0002.36,0001.61
2021-10-20 04:45:00,,0828.1,5.01,0.00,27.2,26.3,00.0,36.3,29.0,16.5,0000.0,0008.35,0002.40,0001.61
2021-10-20 04:46:00,,0828.1,4.99,0.00,27.2,26.3,00.0,36.3,29.0,16.5,0000.0,0008.49,0002.47,0001.61
2021-10-20 04:47:00,,0828.1,5.00,0.00,27.2,26.3,00.0,36.3,29.0,16.4,0000.0,0008.18,0002.53,0001.62
2021-10-20 04:48:00,,0828.1,5.00,0.00,27.2,26.3,00.0,36.3,29.0,16.4,0000.0,0007.94,0002.50,0001.62
2021-10-20 04:49:00,,0828.1,5.00,0.00,27.2,26.3,00.0,36.3,29.0,16.4,0000.0,0007.73,0002.45,0001.61
2021-10-20 04:50:00,,0828.1,4.99,0.00,27.2,26.2,00.0,36.3,29.0,16.4,0000.0,0007.80,0002.48,0001.61
2021-10-20 04:51:00,,0828.0,5.00,0.00,27.2,26.2,00.0,36.3,29.0,16.4,0000.0,0007.82,0002.50,0001.62
2021-10-20 04:52:00,,0828.0,5.00,0.00,27.2,26.2,00.0,36.3,29.0,16.4,0000.0,0007.50,0002.43,0001.63
2021-10-20 04:53:00,,0828.0,5.00,0.00,27.2,26.2,00.0,36.3,29.0,16.4,0000.0,0007.37,0002.43,0001.63
2021-10-20 04:54:00,,0827.9,4.99,0.00,27.2,26.2,00.0,36.3,29.0,16.5,0000.0,0007.25,0002.42,0001.62
2021-10-20 04:55:00,,0828.0,5.00,0.00,27.2,26.2,00.0,36.3,29.0,16.4,0000.0,0006.32,0002.45,0001.63
2021-10-20 04:56:00,,0828.0,5.00,0.00,27.2,26.2,00.0,36.3,29.0,16.5,0000.0,0005.21,0002.46,0001.64
2021-10-20 04:57:00,,0828.0,5.00,0.00,27.2,26.2,00.0,36.3,29.0,16.5,0000.0,0005.88,0002.48,0001.63
2021-10-20 04:58:00,,0828.0,4.99,0.00,27.2,26.2,00.0,36.3,29.0,16.5,0000.0,0005.84,0002.44,0001.63
2021-10-20 04:59:00,,0828.0,5.02,0.00,27.2,26.2,00.0,36.3,29.0,16.5,0000.0,0006.02,0002.39,0001.62
